Retour au catalogue

STARLINK-32370

ActifCommunicationsVLEO
NORAD 61635·PAYLOAD·🇺🇸 United States

Lancé Oct 23, 2024 depuis Cape Canaveral Space Force Station

Loading…

Prochains Passages (prochaines 24 heures)

TLE

FraisSource: CelesTrak SupGP

Époque: Sep 14, 2026, 22:39 UTC

1 61635C 24191Q   26257.94423611 -.00059599  00000+0 -21589-2 0  2572
2 61635  43.0024 165.3872 0001275 270.8123 102.8419 15.27604709    13

Suivez STARLINK-32370 en temps réel avec AllMySat

Download on the App Store